Hourly Data Report for July 12, 2021

RANKIN INLET A
NUNAVUT
Current Station Operator: NAVCAN

62°48'38.000" N
92°06'53.000" W
32.30 m
2303405
71083
YRT

Download Data

Hourly Data (July 2021)
Hourly Data Report for July 12, 2021
TIME
LST
Temp Definition
°C
Dew Point Definition
°C
Rel Hum Definition
%
Precip. Amount Definition
mm

Wind Dir Definition
10's deg

Wind Spd Definition
km/h
Visibility Definition
km
Stn Press Definition
kPa
Hmdx Definition


Wind Chill Definition


Weather Definition


00:00 6.7 5.7 93   10 19 9.7 99.49     Fog
01:00 6.9 6.2 95   14 17 9.7 99.47     Thunderstorms, Rain, Fog
02:00 6.9 6.5 97   9 24 4.8 99.19     Thunderstorms, Rain, Fog
03:00 6.3 5.8 97   15 22 9.7 99.19     Rain, Fog
04:00 7.9 7.5 97   16 7 9.7 99.15     Fog
05:00 8.4 8.0 98   5 11 9.7 99.03     Fog
06:00 7.7 7.2 97   14 26 4.8 98.98     Fog
07:00 8.5 8.2 98   18 18 2.4 98.94     Fog
08:00 9.7 9.4 98   19 8 0.6 98.90     Fog
09:00 10.4 10.2 99   17 8 0.8 98.89     Fog
10:00 12.2 11.3 94   22 6 9.7 98.89     Fog
11:00 14.6 13.0 90   34 28 9.7 98.93     Fog
12:00 12.8 11.5 92   34 36 9.7 98.99     Fog
13:00 13.2 10.5 84   35 41 16.1 99.09     LegendNANA
14:00 12.2 9.3 82   1 43 24.1 99.23     LegendNANA
15:00 11.9 9.3 84   36 41 24.1 99.32     Mostly Cloudy
16:00 12.3 9.3 82   1 47 24.1 99.48     LegendNANA
17:00 12.9 9.7 81   1 39 24.1 99.60     LegendNANA
18:00 14.7 9.5 71   36 48 24.1 99.70     Mostly Cloudy
19:00 15.0 9.9 71   35 35 24.1 99.82     LegendNANA
20:00 14.4 9.7 73   35 30 24.1 99.89     LegendNANA
21:00 12.7 9.3 80   34 21 24.1 99.97     Mostly Cloudy
22:00 10.8 8.1 83   32 22 24.1 100.03     LegendNANA
23:00 10.8 8.1 83   32 22 24.1 100.09     LegendNANA

Notes on Data Quality.

Legend

  • E = Estimated
  • M = Missing
  • NA = Not Available*
  • [empty] = Indicates an unobserved value
Date modified: